Year,Month,Day,Hour,Minute,Value (Times are PST for temperature in C)
2016,04,13,00,00,8.00
2016,04,13,00,01,8.00
2016,04,13,00,02,7.90
2016,04,13,00,03,7.90
2016,04,13,00,04,7.90
2016,04,13,00,05,7.90
2016,04,13,00,06,7.90
2016,04,13,00,07,7.90
2016,04,13,00,08,7.90
2016,04,13,00,09,7.90
2016,04,13,00,10,7.90
2016,04,13,00,11,7.90
2016,04,13,00,12,7.90
2016,04,13,00,13,7.80
2016,04,13,00,14,7.80
2016,04,13,00,15,7.80
2016,04,13,00,16,7.80
2016,04,13,00,17,7.80
2016,04,13,00,18,7.80
2016,04,13,00,19,7.80
2016,04,13,00,20,7.70
2016,04,13,00,21,7.70
2016,04,13,00,22,7.70
2016,04,13,00,23,7.70
2016,04,13,00,24,7.70
2016,04,13,00,25,7.70
2016,04,13,00,26,7.70
2016,04,13,00,27,7.70
2016,04,13,00,28,7.70
2016,04,13,00,29,7.70
2016,04,13,00,30,7.70
2016,04,13,00,31,7.70
2016,04,13,00,32,7.70
2016,04,13,00,33,7.70
2016,04,13,00,34,7.70
2016,04,13,00,35,7.80
2016,04,13,00,36,7.80
2016,04,13,00,37,7.80
2016,04,13,00,38,7.80
2016,04,13,00,39,7.80
2016,04,13,00,40,7.80
2016,04,13,00,41,7.80
2016,04,13,00,42,7.80
2016,04,13,00,43,7.80
2016,04,13,00,44,7.80
2016,04,13,00,45,7.80
2016,04,13,00,46,7.80
2016,04,13,00,47,7.80
2016,04,13,00,48,7.70
2016,04,13,00,49,7.70
2016,04,13,00,50,7.70
2016,04,13,00,51,7.70
2016,04,13,00,52,7.70
2016,04,13,00,53,7.70
2016,04,13,00,54,7.70
2016,04,13,00,55,7.70
2016,04,13,00,56,7.70
2016,04,13,00,57,7.70
2016,04,13,00,58,7.60
2016,04,13,00,59,7.60
2016,04,13,01,00,7.60
2016,04,13,01,01,7.70
2016,04,13,01,02,7.70
2016,04,13,01,03,7.70
2016,04,13,01,04,7.80
2016,04,13,01,05,7.80
2016,04,13,01,06,7.80
2016,04,13,01,07,7.80
2016,04,13,01,08,7.90
2016,04,13,01,09,7.90
2016,04,13,01,10,8.00
2016,04,13,01,11,8.00
2016,04,13,01,12,8.10
2016,04,13,01,13,8.10
2016,04,13,01,14,8.10
2016,04,13,01,15,8.10
2016,04,13,01,16,8.10
2016,04,13,01,17,8.10
2016,04,13,01,18,8.10
2016,04,13,01,19,8.10
2016,04,13,01,20,8.10
2016,04,13,01,21,8.10
2016,04,13,01,22,8.10
2016,04,13,01,23,8.10
2016,04,13,01,24,8.00
2016,04,13,01,25,8.00
2016,04,13,01,26,7.90
2016,04,13,01,27,7.90
2016,04,13,01,28,7.80
2016,04,13,01,29,7.80
2016,04,13,01,30,7.80
2016,04,13,01,31,7.80
2016,04,13,01,32,7.70
2016,04,13,01,33,7.70
2016,04,13,01,34,7.70
2016,04,13,01,35,7.70
2016,04,13,01,36,7.60
2016,04,13,01,37,7.60
2016,04,13,01,38,7.60
2016,04,13,01,39,7.60
2016,04,13,01,40,7.60
2016,04,13,01,41,7.60
2016,04,13,01,42,7.60
2016,04,13,01,43,7.50
2016,04,13,01,44,7.50
2016,04,13,01,45,7.40
2016,04,13,01,46,7.40
2016,04,13,01,47,7.50
2016,04,13,01,48,7.50
2016,04,13,01,49,7.50
2016,04,13,01,50,7.60
2016,04,13,01,51,7.60
2016,04,13,01,52,7.60
2016,04,13,01,53,7.60
2016,04,13,01,54,7.50
2016,04,13,01,55,7.50
2016,04,13,01,56,7.50
2016,04,13,01,57,7.40
2016,04,13,01,58,7.40
2016,04,13,01,59,7.40
2016,04,13,02,00,7.40
2016,04,13,02,01,7.40
2016,04,13,02,02,7.30
2016,04,13,02,03,7.30
2016,04,13,02,04,7.30
2016,04,13,02,05,7.20
2016,04,13,02,06,7.20
2016,04,13,02,07,7.20
2016,04,13,02,08,7.20
2016,04,13,02,09,7.20
2016,04,13,02,10,7.10
2016,04,13,02,11,7.10
2016,04,13,02,12,7.00
2016,04,13,02,13,7.00
2016,04,13,02,14,6.90
2016,04,13,02,15,6.90
2016,04,13,02,16,6.90
2016,04,13,02,17,6.90
2016,04,13,02,18,6.80
2016,04,13,02,19,6.80
2016,04,13,02,20,6.80
2016,04,13,02,21,6.90
2016,04,13,02,22,6.90
2016,04,13,02,23,6.90
2016,04,13,02,24,6.90
2016,04,13,02,25,6.90
2016,04,13,02,26,6.80
2016,04,13,02,27,6.80
2016,04,13,02,28,6.90
2016,04,13,02,29,6.90
2016,04,13,02,30,6.90
2016,04,13,02,31,6.90
2016,04,13,02,32,6.90
2016,04,13,02,33,6.80
2016,04,13,02,34,6.80
2016,04,13,02,35,6.80
2016,04,13,02,36,6.70
2016,04,13,02,37,6.70
2016,04,13,02,38,6.70
2016,04,13,02,39,6.70
2016,04,13,02,40,6.70
2016,04,13,02,41,6.70
2016,04,13,02,42,6.70
2016,04,13,02,43,6.80
2016,04,13,02,44,6.80
2016,04,13,02,45,6.80
2016,04,13,02,46,6.80
2016,04,13,02,47,6.70
2016,04,13,02,48,6.70
2016,04,13,02,49,6.70
2016,04,13,02,50,6.70
2016,04,13,02,51,6.70
2016,04,13,02,52,6.70
2016,04,13,02,53,6.70
2016,04,13,02,54,6.70
2016,04,13,02,55,6.80
2016,04,13,02,56,6.80
2016,04,13,02,57,6.80
2016,04,13,02,58,6.80
2016,04,13,02,59,6.80
2016,04,13,03,00,6.90
2016,04,13,03,01,6.90
2016,04,13,03,02,6.90
2016,04,13,03,03,6.90
2016,04,13,03,04,6.90
2016,04,13,03,05,6.90
2016,04,13,03,06,6.90
2016,04,13,03,07,6.90
2016,04,13,03,08,6.90
2016,04,13,03,09,6.90
2016,04,13,03,10,6.90
2016,04,13,03,11,6.90
2016,04,13,03,12,6.90
2016,04,13,03,13,6.90
2016,04,13,03,14,6.90
2016,04,13,03,15,6.90
2016,04,13,03,16,6.90
2016,04,13,03,17,7.00
2016,04,13,03,18,7.00
2016,04,13,03,19,7.00
2016,04,13,03,20,7.10
2016,04,13,03,21,7.10
2016,04,13,03,22,7.10
2016,04,13,03,23,7.20
2016,04,13,03,24,7.20
2016,04,13,03,25,7.20
2016,04,13,03,26,7.20
2016,04,13,03,27,7.30
2016,04,13,03,28,7.30
2016,04,13,03,29,7.30
2016,04,13,03,30,7.30
2016,04,13,03,31,7.30
2016,04,13,03,32,7.30
2016,04,13,03,33,7.30
2016,04,13,03,34,7.30
2016,04,13,03,35,7.30
2016,04,13,03,36,7.30
2016,04,13,03,37,7.30
2016,04,13,03,38,7.30
2016,04,13,03,39,7.20
2016,04,13,03,40,7.10
2016,04,13,03,41,7.00
2016,04,13,03,42,6.90
2016,04,13,03,43,6.80
2016,04,13,03,44,6.70
2016,04,13,03,45,6.70
2016,04,13,03,46,6.60
2016,04,13,03,47,6.50
2016,04,13,03,48,6.40
2016,04,13,03,49,6.40
2016,04,13,03,50,6.30
2016,04,13,03,51,6.30
2016,04,13,03,52,6.30
2016,04,13,03,53,6.30
2016,04,13,03,54,6.30
2016,04,13,03,55,6.30
2016,04,13,03,56,6.30
2016,04,13,03,57,6.30
2016,04,13,03,58,6.30
2016,04,13,03,59,6.30
2016,04,13,04,00,6.30
2016,04,13,04,01,6.30
2016,04,13,04,02,6.20
2016,04,13,04,03,6.20
2016,04,13,04,04,6.20
2016,04,13,04,05,6.20
2016,04,13,04,06,6.20
2016,04,13,04,07,6.20
2016,04,13,04,08,6.20
2016,04,13,04,09,6.20
2016,04,13,04,10,6.20
2016,04,13,04,11,6.20
2016,04,13,04,12,6.20
2016,04,13,04,13,6.20
2016,04,13,04,14,6.20
2016,04,13,04,15,6.20
2016,04,13,04,16,6.20
2016,04,13,04,17,6.20
2016,04,13,04,18,6.20
2016,04,13,04,19,6.20
2016,04,13,04,20,6.20
2016,04,13,04,21,6.20
2016,04,13,04,22,6.20
2016,04,13,04,23,6.30
2016,04,13,04,24,6.30
2016,04,13,04,25,6.30
2016,04,13,04,26,6.30
2016,04,13,04,27,6.30
2016,04,13,04,28,6.30
2016,04,13,04,29,6.30
2016,04,13,04,30,6.30
2016,04,13,04,31,6.30
2016,04,13,04,32,6.30
2016,04,13,04,33,6.30
2016,04,13,04,34,6.40
2016,04,13,04,35,6.40
2016,04,13,04,36,6.40
2016,04,13,04,37,6.50
2016,04,13,04,38,6.60
2016,04,13,04,39,6.60
2016,04,13,04,40,6.70
2016,04,13,04,41,6.70
2016,04,13,04,42,6.70
2016,04,13,04,43,6.70
2016,04,13,04,44,6.70
2016,04,13,04,45,6.70
2016,04,13,04,46,6.70
2016,04,13,04,47,6.70
2016,04,13,04,48,6.70
2016,04,13,04,49,6.70
2016,04,13,04,50,6.70
2016,04,13,04,51,6.70
2016,04,13,04,52,6.70
2016,04,13,04,53,6.70
2016,04,13,04,54,6.70
2016,04,13,04,55,6.70
2016,04,13,04,56,6.70
2016,04,13,04,57,6.70
2016,04,13,04,58,6.70
2016,04,13,04,59,6.70
2016,04,13,05,00,6.70
2016,04,13,05,01,6.70
2016,04,13,05,02,6.70
2016,04,13,05,03,6.70
2016,04,13,05,04,6.70
2016,04,13,05,05,6.70
2016,04,13,05,06,6.70
2016,04,13,05,07,6.70
2016,04,13,05,08,6.70
2016,04,13,05,09,6.70
2016,04,13,05,10,6.70
2016,04,13,05,11,6.70
2016,04,13,05,12,6.70
2016,04,13,05,13,6.70
2016,04,13,05,14,6.70
2016,04,13,05,15,6.70
2016,04,13,05,16,6.70
2016,04,13,05,17,6.70
2016,04,13,05,18,6.70
2016,04,13,05,19,6.60
2016,04,13,05,20,6.60
2016,04,13,05,21,6.60
2016,04,13,05,22,6.60
2016,04,13,05,23,6.60
2016,04,13,05,24,6.60
2016,04,13,05,25,6.60
2016,04,13,05,26,6.60
2016,04,13,05,27,6.60
2016,04,13,05,28,6.50
2016,04,13,05,29,6.50
2016,04,13,05,30,6.50
2016,04,13,05,31,6.50
2016,04,13,05,32,6.50
2016,04,13,05,33,6.40
2016,04,13,05,34,6.40
2016,04,13,05,35,6.40
2016,04,13,05,36,6.40
2016,04,13,05,37,6.40
2016,04,13,05,38,6.40
2016,04,13,05,39,6.40
2016,04,13,05,40,6.40
2016,04,13,05,41,6.40
2016,04,13,05,42,6.40
2016,04,13,05,43,6.40
2016,04,13,05,44,6.30
2016,04,13,05,45,6.30
2016,04,13,05,46,6.30
2016,04,13,05,47,6.30
2016,04,13,05,48,6.30
2016,04,13,05,49,6.30
2016,04,13,05,50,6.30
2016,04,13,05,51,6.30
2016,04,13,05,52,6.30
2016,04,13,05,53,6.30
2016,04,13,05,54,6.30
2016,04,13,05,55,6.30
2016,04,13,05,56,6.30
2016,04,13,05,57,6.30
2016,04,13,05,58,6.30
2016,04,13,05,59,6.30
2016,04,13,06,00,6.30
2016,04,13,06,01,6.30
2016,04,13,06,02,6.30
2016,04,13,06,03,6.30
2016,04,13,06,04,6.30
2016,04,13,06,05,6.30
2016,04,13,06,06,6.30
2016,04,13,06,07,6.30
2016,04,13,06,08,6.30
2016,04,13,06,09,6.30
2016,04,13,06,10,6.30
2016,04,13,06,11,6.20
2016,04,13,06,12,6.20
2016,04,13,06,13,6.20
2016,04,13,06,14,6.20
2016,04,13,06,15,6.20
2016,04,13,06,16,6.20
2016,04,13,06,17,6.20
2016,04,13,06,18,6.20
2016,04,13,06,19,6.20
2016,04,13,06,20,6.20
2016,04,13,06,21,6.20
2016,04,13,06,22,6.20
2016,04,13,06,23,6.20
2016,04,13,06,24,6.20
2016,04,13,06,25,6.20
2016,04,13,06,26,6.20
2016,04,13,06,27,6.20
2016,04,13,06,28,6.30
2016,04,13,06,29,6.30
2016,04,13,06,30,6.30
2016,04,13,06,31,6.30
2016,04,13,06,32,6.30
2016,04,13,06,33,6.30
2016,04,13,06,34,6.30
2016,04,13,06,35,6.30
2016,04,13,06,36,6.30
2016,04,13,06,37,6.30
2016,04,13,06,38,6.30
2016,04,13,06,39,6.30
2016,04,13,06,40,6.30
2016,04,13,06,41,6.30
2016,04,13,06,42,6.30
2016,04,13,06,43,6.30
2016,04,13,06,44,6.30
2016,04,13,06,45,6.30
2016,04,13,06,46,6.30
2016,04,13,06,47,6.30
2016,04,13,06,48,6.30
2016,04,13,06,49,6.30
2016,04,13,06,50,6.30
2016,04,13,06,51,6.30
2016,04,13,06,52,6.30
2016,04,13,06,53,6.30
2016,04,13,06,54,6.30
2016,04,13,06,55,6.30
2016,04,13,06,56,6.30
2016,04,13,06,57,6.30
2016,04,13,06,58,6.30
2016,04,13,06,59,6.30
2016,04,13,07,00,6.30
2016,04,13,07,01,6.30
2016,04,13,07,02,6.30
2016,04,13,07,03,6.30
2016,04,13,07,04,6.30
2016,04,13,07,05,6.30
2016,04,13,07,06,6.30
2016,04,13,07,07,6.30
2016,04,13,07,08,6.30
2016,04,13,07,09,6.30
2016,04,13,07,10,6.40
2016,04,13,07,11,6.40
2016,04,13,07,12,6.50
2016,04,13,07,13,6.50
2016,04,13,07,14,6.60
2016,04,13,07,15,6.60
2016,04,13,07,16,6.70
2016,04,13,07,17,6.70
2016,04,13,07,18,6.70
2016,04,13,07,19,6.80
2016,04,13,07,20,6.80
2016,04,13,07,21,6.80
2016,04,13,07,22,6.90
2016,04,13,07,23,6.90
2016,04,13,07,24,7.00
2016,04,13,07,25,7.00
2016,04,13,07,26,7.10
2016,04,13,07,27,7.10
2016,04,13,07,28,7.10
2016,04,13,07,29,7.20
2016,04,13,07,30,7.20
2016,04,13,07,31,7.20
2016,04,13,07,32,7.20
2016,04,13,07,33,7.30
2016,04,13,07,34,7.30
2016,04,13,07,35,7.30
2016,04,13,07,36,7.30
2016,04,13,07,37,7.30
2016,04,13,07,38,7.40
2016,04,13,07,39,7.40
2016,04,13,07,40,7.40
2016,04,13,07,41,7.40
2016,04,13,07,42,7.40
2016,04,13,07,43,7.40
2016,04,13,07,44,7.40
2016,04,13,07,45,7.40
2016,04,13,07,46,7.50
2016,04,13,07,47,7.50
2016,04,13,07,48,7.50
2016,04,13,07,49,7.60
2016,04,13,07,50,7.60
2016,04,13,07,51,7.60
2016,04,13,07,52,7.70
2016,04,13,07,53,7.70
2016,04,13,07,54,7.70
2016,04,13,07,55,7.70
2016,04,13,07,56,7.70
2016,04,13,07,57,7.80
2016,04,13,07,58,7.80
2016,04,13,07,59,7.80
2016,04,13,08,00,7.80
2016,04,13,08,01,7.90
2016,04,13,08,02,7.90
2016,04,13,08,03,7.90
2016,04,13,08,04,7.90
2016,04,13,08,05,7.90
2016,04,13,08,06,7.90
2016,04,13,08,07,7.90
2016,04,13,08,08,7.90
2016,04,13,08,09,7.90
2016,04,13,08,10,8.00
2016,04,13,08,11,7.90
2016,04,13,08,12,8.00
2016,04,13,08,13,8.00
2016,04,13,08,14,8.00
2016,04,13,08,15,8.00
2016,04,13,08,16,8.00
2016,04,13,08,17,8.00
2016,04,13,08,18,8.00
2016,04,13,08,19,8.10
2016,04,13,08,20,8.00
2016,04,13,08,21,8.00
2016,04,13,08,22,8.00
2016,04,13,08,23,8.00
2016,04,13,08,24,8.00
2016,04,13,08,25,8.10
2016,04,13,08,26,8.10
2016,04,13,08,27,8.10
2016,04,13,08,28,8.10
2016,04,13,08,29,8.10
2016,04,13,08,30,8.10
2016,04,13,08,31,8.10
2016,04,13,08,32,8.10
2016,04,13,08,33,8.10
2016,04,13,08,34,8.10
2016,04,13,08,35,8.10
2016,04,13,08,36,8.10
2016,04,13,08,37,8.10
2016,04,13,08,38,8.20
2016,04,13,08,39,8.20
2016,04,13,08,40,8.20
2016,04,13,08,41,8.20
2016,04,13,08,42,8.20
2016,04,13,08,43,8.20
2016,04,13,08,44,8.20
2016,04,13,08,45,8.20
2016,04,13,08,46,8.20
2016,04,13,08,47,8.20
2016,04,13,08,48,8.30
2016,04,13,08,49,8.30
2016,04,13,08,50,8.30
2016,04,13,08,51,8.30
2016,04,13,08,52,8.40
2016,04,13,08,53,8.40
2016,04,13,08,54,8.40
2016,04,13,08,55,8.50
2016,04,13,08,56,8.50
2016,04,13,08,57,8.60
2016,04,13,08,58,8.70
2016,04,13,08,59,8.70
2016,04,13,09,00,8.80
2016,04,13,09,01,8.80
2016,04,13,09,02,8.70
2016,04,13,09,03,8.70
2016,04,13,09,04,8.70
2016,04,13,09,05,8.70
2016,04,13,09,06,8.70
2016,04,13,09,07,8.80
2016,04,13,09,08,8.80
2016,04,13,09,09,8.70
2016,04,13,09,10,8.70
2016,04,13,09,11,8.70
2016,04,13,09,12,8.70
2016,04,13,09,13,8.70
2016,04,13,09,14,8.70
2016,04,13,09,15,8.70
2016,04,13,09,16,8.70
2016,04,13,09,17,8.70
2016,04,13,09,18,8.70
2016,04,13,09,19,8.80
2016,04,13,09,20,8.80
2016,04,13,09,21,8.90
2016,04,13,09,22,8.90
2016,04,13,09,23,8.90
2016,04,13,09,24,8.90
2016,04,13,09,25,9.00
2016,04,13,09,26,9.00
2016,04,13,09,27,8.90
2016,04,13,09,28,8.90
2016,04,13,09,29,8.90
2016,04,13,09,30,8.90
2016,04,13,09,31,8.90
2016,04,13,09,32,8.80
2016,04,13,09,33,8.80
2016,04,13,09,34,8.90
2016,04,13,09,35,8.90
2016,04,13,09,36,8.90
2016,04,13,09,37,8.90
2016,04,13,09,38,8.90
2016,04,13,09,39,8.90
2016,04,13,09,40,8.90
2016,04,13,09,41,8.90
2016,04,13,09,42,8.90
2016,04,13,09,43,8.90
2016,04,13,09,44,8.90
2016,04,13,09,45,8.90
2016,04,13,09,46,8.90
2016,04,13,09,47,8.90
2016,04,13,09,48,8.90
2016,04,13,09,49,8.90
2016,04,13,09,50,8.90
2016,04,13,09,51,8.90
2016,04,13,09,52,8.90
2016,04,13,09,53,9.00
2016,04,13,09,54,9.10
2016,04,13,09,55,9.10
2016,04,13,09,56,9.10
2016,04,13,09,57,9.10
2016,04,13,09,58,9.10
2016,04,13,09,59,9.10
2016,04,13,10,00,9.10
2016,04,13,10,01,9.10
2016,04,13,10,02,9.10
2016,04,13,10,03,9.10
2016,04,13,10,04,9.10
2016,04,13,10,05,9.10
2016,04,13,10,06,9.10
2016,04,13,10,07,9.10
2016,04,13,10,08,9.00
2016,04,13,10,09,9.00
2016,04,13,10,10,9.10
2016,04,13,10,11,9.10
2016,04,13,10,12,9.10
2016,04,13,10,13,9.10
2016,04,13,10,14,9.10
2016,04,13,10,15,9.10
2016,04,13,10,16,9.10
2016,04,13,10,17,9.00
2016,04,13,10,18,9.00
2016,04,13,10,19,8.90
2016,04,13,10,20,8.90
2016,04,13,10,21,8.90
2016,04,13,10,22,8.90
2016,04,13,10,23,8.90
2016,04,13,10,24,8.90
2016,04,13,10,25,9.00
2016,04,13,10,26,9.00
2016,04,13,10,27,9.10
2016,04,13,10,28,9.10
2016,04,13,10,29,9.10
2016,04,13,10,30,9.10
2016,04,13,10,31,9.00
2016,04,13,10,32,9.00
2016,04,13,10,33,8.90
2016,04,13,10,34,8.90
2016,04,13,10,35,8.80
2016,04,13,10,36,8.80
2016,04,13,10,37,8.80
2016,04,13,10,38,8.80
2016,04,13,10,39,8.80
2016,04,13,10,40,8.80
2016,04,13,10,41,8.80
2016,04,13,10,42,8.80
2016,04,13,10,43,8.80
2016,04,13,10,44,8.80
2016,04,13,10,45,8.90
2016,04,13,10,46,8.90
2016,04,13,10,47,8.90
2016,04,13,10,48,8.90
2016,04,13,10,49,8.90
2016,04,13,10,50,8.90
2016,04,13,10,51,9.00
2016,04,13,10,52,9.10
2016,04,13,10,53,9.10
2016,04,13,10,54,9.20
2016,04,13,10,55,9.30
2016,04,13,10,56,9.30
2016,04,13,10,57,9.30
2016,04,13,10,58,9.40
2016,04,13,10,59,9.40
2016,04,13,11,00,9.50
2016,04,13,11,01,9.50
2016,04,13,11,02,9.50
2016,04,13,11,03,9.50
2016,04,13,11,04,9.50
2016,04,13,11,05,9.50
2016,04,13,11,06,9.50
2016,04,13,11,07,9.50
2016,04,13,11,08,9.50
2016,04,13,11,09,9.50
2016,04,13,11,10,9.50
2016,04,13,11,11,9.50
2016,04,13,11,12,9.60
2016,04,13,11,13,9.60
2016,04,13,11,14,9.60
2016,04,13,11,15,9.70
2016,04,13,11,16,9.70
2016,04,13,11,17,9.80
2016,04,13,11,18,9.80
2016,04,13,11,19,9.80
2016,04,13,11,20,9.80
2016,04,13,11,21,9.80
2016,04,13,11,22,9.70
2016,04,13,11,23,9.70
2016,04,13,11,24,9.70
2016,04,13,11,25,9.80
2016,04,13,11,26,9.80
2016,04,13,11,27,9.80
2016,04,13,11,28,9.80
2016,04,13,11,29,9.90
2016,04,13,11,30,9.90
2016,04,13,11,31,10.00
2016,04,13,11,32,10.00
2016,04,13,11,33,10.00
2016,04,13,11,34,10.10
2016,04,13,11,35,10.10
2016,04,13,11,36,10.10
2016,04,13,11,37,10.20
2016,04,13,11,38,10.20
2016,04,13,11,39,10.20
2016,04,13,11,40,10.20
2016,04,13,11,41,10.30
2016,04,13,11,42,10.30
2016,04,13,11,43,10.30
2016,04,13,11,44,10.30
2016,04,13,11,45,10.30
2016,04,13,11,46,10.40
2016,04,13,11,47,10.40
2016,04,13,11,48,10.50
2016,04,13,11,49,10.60
2016,04,13,11,50,10.70
2016,04,13,11,51,10.70
2016,04,13,11,52,10.80
2016,04,13,11,53,10.80
2016,04,13,11,54,10.80
2016,04,13,11,55,10.80
2016,04,13,11,56,10.80
2016,04,13,11,57,10.70
2016,04,13,11,58,10.70
2016,04,13,11,59,10.70
2016,04,13,12,00,10.70
2016,04,13,12,01,10.70
2016,04,13,12,02,10.80
2016,04,13,12,03,10.80
2016,04,13,12,04,10.90
2016,04,13,12,05,11.00
2016,04,13,12,06,11.00
2016,04,13,12,07,11.10
2016,04,13,12,08,11.10
2016,04,13,12,09,11.20
2016,04,13,12,10,11.20
2016,04,13,12,11,11.30
2016,04,13,12,12,11.30
2016,04,13,12,13,11.30
2016,04,13,12,14,11.30
2016,04,13,12,15,11.30
2016,04,13,12,16,11.40
2016,04,13,12,17,11.40
2016,04,13,12,18,11.50
2016,04,13,12,19,11.70
2016,04,13,12,20,11.80
2016,04,13,12,21,11.90
2016,04,13,12,22,11.90
2016,04,13,12,23,11.90
2016,04,13,12,24,11.90
2016,04,13,12,25,11.90
2016,04,13,12,26,11.90
2016,04,13,12,27,11.90
2016,04,13,12,28,11.90
2016,04,13,12,29,12.00
2016,04,13,12,30,12.00
2016,04,13,12,31,12.10
2016,04,13,12,32,12.10
2016,04,13,12,33,12.10
2016,04,13,12,34,12.10
2016,04,13,12,35,12.00
2016,04,13,12,36,12.00
2016,04,13,12,37,12.10
2016,04,13,12,38,12.10
2016,04,13,12,39,12.10
2016,04,13,12,40,12.10
2016,04,13,12,41,12.10
2016,04,13,12,42,12.10
2016,04,13,12,43,12.10
2016,04,13,12,44,12.10
2016,04,13,12,45,12.10
2016,04,13,12,46,12.10
2016,04,13,12,47,12.00
2016,04,13,12,48,12.00
2016,04,13,12,49,12.00
2016,04,13,12,50,12.00
2016,04,13,12,51,11.90
2016,04,13,12,52,11.90
2016,04,13,12,53,11.90
2016,04,13,12,54,11.80
2016,04,13,12,55,11.80
2016,04,13,12,56,11.80
2016,04,13,12,57,11.80
2016,04,13,12,58,11.80
2016,04,13,12,59,11.80
2016,04,13,13,00,11.80
2016,04,13,13,01,11.80
2016,04,13,13,02,11.70
2016,04,13,13,03,11.70
2016,04,13,13,04,11.70
2016,04,13,13,05,11.70
2016,04,13,13,06,11.80
2016,04,13,13,07,11.70
2016,04,13,13,08,11.70
2016,04,13,13,09,11.80
2016,04,13,13,10,11.80
2016,04,13,13,11,11.80
2016,04,13,13,12,11.80
2016,04,13,13,13,11.80
2016,04,13,13,14,11.90
2016,04,13,13,15,11.90
2016,04,13,13,16,11.90
2016,04,13,13,17,11.90
2016,04,13,13,18,11.90
2016,04,13,13,19,11.90
2016,04,13,13,20,11.90
2016,04,13,13,21,11.90
2016,04,13,13,22,11.90
2016,04,13,13,23,12.00
2016,04,13,13,24,12.00
2016,04,13,13,25,12.00
2016,04,13,13,26,12.10
2016,04,13,13,27,12.10
2016,04,13,13,28,12.10
2016,04,13,13,29,12.10
2016,04,13,13,30,12.10
2016,04,13,13,31,12.10
2016,04,13,13,32,12.10
2016,04,13,13,33,12.10
2016,04,13,13,34,12.10
2016,04,13,13,35,12.10
2016,04,13,13,36,12.20
2016,04,13,13,37,12.20
2016,04,13,13,38,12.30
2016,04,13,13,39,12.30
2016,04,13,13,40,12.30
2016,04,13,13,41,12.30
2016,04,13,13,42,12.30
2016,04,13,13,43,12.30
2016,04,13,13,44,12.30
2016,04,13,13,45,12.30
2016,04,13,13,46,12.30
2016,04,13,13,47,12.20
2016,04,13,13,48,12.20
2016,04,13,13,49,12.20
2016,04,13,13,50,12.20
2016,04,13,13,51,12.20
2016,04,13,13,52,12.20
2016,04,13,13,53,12.20
2016,04,13,13,54,12.20
2016,04,13,13,55,12.20
2016,04,13,13,56,12.20
2016,04,13,13,57,12.20
2016,04,13,13,58,12.20
2016,04,13,13,59,12.20
2016,04,13,14,00,12.20
2016,04,13,14,01,12.20
2016,04,13,14,02,12.20
2016,04,13,14,03,12.20
2016,04,13,14,04,12.20
2016,04,13,14,05,12.20
2016,04,13,14,06,12.20
2016,04,13,14,07,12.10
2016,04,13,14,08,12.10
2016,04,13,14,09,12.10
2016,04,13,14,10,12.10
2016,04,13,14,11,12.10
2016,04,13,14,12,12.20
2016,04,13,14,13,12.20
2016,04,13,14,14,12.20
2016,04,13,14,15,12.20
2016,04,13,14,16,12.20
2016,04,13,14,17,12.20
2016,04,13,14,18,12.20
2016,04,13,14,19,12.20
2016,04,13,14,20,12.20
2016,04,13,14,21,12.30
2016,04,13,14,22,12.30
2016,04,13,14,23,12.30
2016,04,13,14,24,12.30
2016,04,13,14,25,12.20
2016,04,13,14,26,12.20
2016,04,13,14,27,12.10
2016,04,13,14,28,12.10
2016,04,13,14,29,12.00
2016,04,13,14,30,12.00
2016,04,13,14,31,11.90
2016,04,13,14,32,11.90
2016,04,13,14,33,11.90
2016,04,13,14,34,11.90
2016,04,13,14,35,11.90
2016,04,13,14,36,11.80
2016,04,13,14,37,11.80
2016,04,13,14,38,11.80
2016,04,13,14,39,11.80
2016,04,13,14,40,11.80
2016,04,13,14,41,11.80
2016,04,13,14,42,11.70
2016,04,13,14,43,11.70
2016,04,13,14,44,11.60
2016,04,13,14,45,11.60
2016,04,13,14,46,11.60
2016,04,13,14,47,11.60
2016,04,13,14,48,11.60
2016,04,13,14,49,11.60
2016,04,13,14,50,11.60
2016,04,13,14,51,11.50
2016,04,13,14,52,11.50
2016,04,13,14,53,11.50
2016,04,13,14,54,11.60
2016,04,13,14,55,11.60
2016,04,13,14,56,11.60
2016,04,13,14,57,11.60
2016,04,13,14,58,11.60
2016,04,13,14,59,11.70
2016,04,13,15,00,11.70
2016,04,13,15,01,11.70
2016,04,13,15,02,11.80
2016,04,13,15,03,11.80
2016,04,13,15,04,11.80
2016,04,13,15,05,11.80
2016,04,13,15,06,11.80
2016,04,13,15,07,11.80
2016,04,13,15,08,11.80
2016,04,13,15,09,11.80
2016,04,13,15,10,11.70
2016,04,13,15,11,11.70
2016,04,13,15,12,11.70
2016,04,13,15,13,11.70
2016,04,13,15,14,11.70
2016,04,13,15,15,11.60
2016,04,13,15,16,11.60
2016,04,13,15,17,11.70
2016,04,13,15,18,11.70
2016,04,13,15,19,11.70
2016,04,13,15,20,11.70
2016,04,13,15,21,11.70
2016,04,13,15,22,11.70
2016,04,13,15,23,11.70
2016,04,13,15,24,11.80
2016,04,13,15,25,11.80
2016,04,13,15,26,11.80
2016,04,13,15,27,11.80
2016,04,13,15,28,11.90
2016,04,13,15,29,11.90
2016,04,13,15,30,12.00
2016,04,13,15,31,12.00
2016,04,13,15,32,12.00
2016,04,13,15,33,12.10
2016,04,13,15,34,12.10
2016,04,13,15,35,12.10
2016,04,13,15,36,12.10
2016,04,13,15,37,12.10
2016,04,13,15,38,12.00
2016,04,13,15,39,12.10
2016,04,13,15,40,12.00
2016,04,13,15,41,12.00
2016,04,13,15,42,12.00
2016,04,13,15,43,11.90
2016,04,13,15,44,11.90
2016,04,13,15,45,11.90
2016,04,13,15,46,11.90
2016,04,13,15,47,12.00
2016,04,13,15,48,12.00
2016,04,13,15,49,11.90
2016,04,13,15,50,11.90
2016,04,13,15,51,11.90
2016,04,13,15,52,11.90
2016,04,13,15,53,11.90
2016,04,13,15,54,11.90
2016,04,13,15,55,11.90
2016,04,13,15,56,11.90
2016,04,13,15,57,11.90
2016,04,13,15,58,11.90
2016,04,13,15,59,11.90
2016,04,13,16,00,11.90
2016,04,13,16,01,11.80
2016,04,13,16,02,11.80
2016,04,13,16,03,11.80
2016,04,13,16,04,11.80
2016,04,13,16,05,11.80
2016,04,13,16,06,11.80
2016,04,13,16,07,11.80
2016,04,13,16,08,11.80
2016,04,13,16,09,11.90
2016,04,13,16,10,11.90
2016,04,13,16,11,11.80
2016,04,13,16,12,11.90
2016,04,13,16,13,11.90
2016,04,13,16,14,11.90
2016,04,13,16,15,11.90
2016,04,13,16,16,11.90
2016,04,13,16,17,11.90
2016,04,13,16,18,11.90
2016,04,13,16,19,11.90
2016,04,13,16,20,11.90
2016,04,13,16,21,11.90
2016,04,13,16,22,11.90
2016,04,13,16,23,11.80
2016,04,13,16,24,11.80
2016,04,13,16,25,11.80
2016,04,13,16,26,11.80
2016,04,13,16,27,11.80
2016,04,13,16,28,11.80
2016,04,13,16,29,11.80
2016,04,13,16,30,11.80
2016,04,13,16,31,11.80
2016,04,13,16,32,11.80
2016,04,13,16,33,11.80
2016,04,13,16,34,11.80
2016,04,13,16,35,11.80
2016,04,13,16,36,11.90
2016,04,13,16,37,11.90
2016,04,13,16,38,11.90
2016,04,13,16,39,11.90
2016,04,13,16,40,11.90
2016,04,13,16,41,11.90
2016,04,13,16,42,11.90
2016,04,13,16,43,11.90
2016,04,13,16,44,11.90
2016,04,13,16,45,11.90
2016,04,13,16,46,11.90
2016,04,13,16,47,11.90
2016,04,13,16,48,11.90
2016,04,13,16,49,11.90
2016,04,13,16,50,11.90
2016,04,13,16,51,11.90
2016,04,13,16,52,11.90
2016,04,13,16,53,11.90
2016,04,13,16,54,11.90
2016,04,13,16,55,12.00
2016,04,13,16,56,12.00
2016,04,13,16,57,12.00
2016,04,13,16,58,12.00
2016,04,13,16,59,12.00
2016,04,13,17,00,12.00
2016,04,13,17,01,12.10
2016,04,13,17,02,12.10
2016,04,13,17,03,12.00
2016,04,13,17,04,12.00
2016,04,13,17,05,12.00
2016,04,13,17,06,12.00
2016,04,13,17,07,12.00
2016,04,13,17,08,12.00
2016,04,13,17,09,12.00
2016,04,13,17,10,12.00
2016,04,13,17,11,12.00
2016,04,13,17,12,11.90
2016,04,13,17,13,11.90
2016,04,13,17,14,11.90
2016,04,13,17,15,11.90
2016,04,13,17,16,11.90
2016,04,13,17,17,11.90
2016,04,13,17,18,11.80
2016,04,13,17,19,11.80
2016,04,13,17,20,11.80
2016,04,13,17,21,11.80
2016,04,13,17,22,11.80
2016,04,13,17,23,11.80
2016,04,13,17,24,11.80
2016,04,13,17,25,11.80
2016,04,13,17,26,11.80
2016,04,13,17,27,11.80
2016,04,13,17,28,11.80
2016,04,13,17,29,11.80
2016,04,13,17,30,11.70
2016,04,13,17,31,11.70
2016,04,13,17,32,11.70
2016,04,13,17,33,11.70
2016,04,13,17,34,11.70
2016,04,13,17,35,11.70
2016,04,13,17,36,11.70
2016,04,13,17,37,11.70
2016,04,13,17,38,11.70
2016,04,13,17,39,11.60
2016,04,13,17,40,11.60
2016,04,13,17,41,11.60
2016,04,13,17,42,11.60
2016,04,13,17,43,11.60
2016,04,13,17,44,11.60
2016,04,13,17,45,11.60
2016,04,13,17,46,11.50
2016,04,13,17,47,11.50
2016,04,13,17,48,11.50
2016,04,13,17,49,11.50